Wind_Speed
36 37 37 37 38 39 40 41 41 41 41 42 43 44 46 47 47 47 48 48 48 48 48 47 47 47 47 48 49 50 50 50 50 49 50 50 50 50 50 50 50 50 51
36 37 37 38 39 40 41 41 42 42 42 42 43 44 45 45 46 47 47 47 47 47 47 47 47 48 48 48 49 49 49 50 50 50 50 50 50 51 51 51 51 51 51
36 36 37 38 39 40 41 42 42 43 43 44 44 44 45 45 45 46 47 48 48 48 48 48 48 49 49 48 48 48 49 49 50 50 50 50 50 51 51 51 51 50 49
36 36 37 38 39 40 40 41 42 43 44 44 45 44 45 46 46 46 47 48 49 49 49 48 48 48 49 49 49 49 48 48 48 49 49 49 49 49 50 49 49 48 48
35 36 36 37 38 38 39 39 40 41 42 42 43 44 45 45 46 47 47 47 47 48 48 49 49 48 49 49 49 49 48 47 47 47 47 48 48 47 47 47 47 46 46
34 34 35 36 36 37 38 38 39 39 41 41 42 43 43 44 45 45 45 45 45 46 47 47 47 47 47 47 47 47 47 46 46 46 46 46 46 46 46 46 46 47 46
32 32 33 34 35 36 36 37 37 38 39 40 40 41 42 42 42 42 42 43 43 44 45 45 46 45 45 44 44 45 45 45 46 46 45 45 46 45 46 46 46 45 45
31 31 32 32 33 33 33 34 35 35 36 37 38 38 39 39 39 39 39 40 40 41 41 41 42 42 42 42 42 42 43 43 44 44 44 45 45 45 45 44 44 44 44
28 29 29 29 30 30 30 31 32 33 33 34 34 35 35 35 36 36 36 37 37 37 36 37 37 38 39 40 40 40 40 40 41 41 41 42 43 42 43 43 43 43 42
27 27 27 28 28 28 29 29 30 30 30 31 32 32 33 33 33 33 34 34 34 34 34 34 35 35 35 36 37 38 38 37 37 38 38 38 39 39 39 40 40 40 40
25 26 26 26 26 26 27 27 28 28 28 28 29 30 30 30 31 31 31 31 31 32 32 32 33 33 33 34 34 35 35 35 34 35 35 36 36 37 37 38 38 38 37
25 25 25 25 25 25 25 25 25 26 26 27 27 27 27 27 27 27 27 28 28 28 28 29 30 31 31 32 33 33 33 33 33 33 34 34 34 35 35 35 34 34 33
24 24 25 25 24 24 24 24 24 24 24 24 25 25 24 23 23 24 24 24 24 24 25 26 28 29 30 31 31 31 32 32 33 33 32 32 32 32 32 31 31 30 30
23 23 23 23 23 23 23 23 23 22 23 23 22 22 21 21 21 22 22 22 23 24 24 25 26 27 28 29 28 29 30 30 31 31 30 30 29 27 27 27 27 27 26
22 22 22 22 22 22 22 22 21 21 21 20 20 20 20 20 20 21 21 22 22 22 22 23 23 23 24 24 25 25 26 26 26 27 26 26 26 25 24 24 24 24 23
22 22 22 22 22 22 21 21 20 20 20 20 20 20 19 20 20 20 20 20 20 20 20 20 21 21 22 22 23 23 23 23 23 23 23 23 23 23 23 22 21 21 21
21 21 21 21 21 21 20 20 20 20 20 19 19 19 19 19 19 19 18 18 18 18 19 19 19 19 20 20 20 20 20 20 20 21 21 21 21 21 21 20 19 19 19
20 20 19 19 19 19 19 19 19 19 18 18 18 18 18 17 17 18 18 17 17 17 18 18 18 18 18 18 18 18 17 17 17 17 17 17 18 18 18 18 17 16 15
18 18 18 18 18 17 17 18 18 18 18 18 18 18 18 18 17 17 17 17 17 17 17 17 17 16 16 16 16 16 16 15 15 15 15 15 14 15 15 14 14 13 13
17 17 17 17 17 17 17 18 18 18 17 17 17 17 18 17 17 17 17 17 17 17 16 16 15 15 14 14 14 14 14 14 14 13 13 13 13 13 12 12 12 12 12
17 17 17 17 17 17 17 17 17 17 17 17 17 17 17 17 17 17 16 16 16 15 15 15 14 13 13 14 14 13 12 12 12 11 11 11 11 11 11 11 11 12 12
17 17 17 16 16 16 16 16 16 17 16 16 16 16 16 16 16 16 16 15 15 15 15 14 13 13 13 13 13 12 12 12 12 11 11 11 10 10 10 11 11 12 12
16 16 16 16 16 17 17 17 16 16 16 16 16 16 16 16 16 15 14 14 14 14 14 14 13 13 12 13 13 12 12 12 11 11 11 11 11 11 11 11 11 12 12
16 16 16 16 16 17 17 16 16 16 16 16 16 16 16 15 15 14 14 13 13 13 13 13 13 13 13 13 12 12 11 11 11 10 10 10 10 10 10 10 10 10 10
16 16 16 17 17 17 17 17 16 16 16 16 16 16 15 14 14 13 13 13 13 13 13 13 13 13 13 13 12 12 11 11 10 10 9 10 10 10 10 10 9 9 9
16 16 17 17 17 17 17 16 16 15 15 15 14 14 14 13 13 13 13 13 13 13 14 14 13 13 13 12 12 12 11 11 11 10 9 9 9 9 8 8 8 8 7
Wind_Direction
267 267 266 266 264 263 263 263 264 265 266 267 267 268 269 269 268 268 268 267 268 268 267 267 268 269 268 268 268 268 269 270 270 270 271 272 272 273 274 275 275 276 276
268 268 267 267 266 264 264 264 265 265 266 267 268 269 269 269 268 268 267 266 267 267 267 267 267 268 269 270 270 271 271 271 271 271 271 272 273 273 275 276 276 276 275
268 268 268 268 267 266 266 265 265 265 266 268 269 270 269 270 270 269 267 268 267 267 267 267 267 268 269 270 270 270 271 271 271 271 271 272 273 274 275 275 275 275 275
268 269 270 269 269 268 267 267 267 267 268 268 269 269 269 270 271 271 269 268 267 267 267 267 268 268 269 269 270 271 271 272 272 272 272 273 274 275 275 275 274 274 276
270 271 271 271 271 271 271 271 270 270 269 269 269 268 269 270 271 271 270 269 268 267 267 267 268 268 269 269 270 270 271 272 273 273 274 274 274 274 274 275 275 275 276
271 273 272 272 272 271 272 272 272 272 270 270 270 270 270 271 271 271 269 268 267 267 267 267 267 269 269 269 270 271 271 272 273 274 274 275 275 275 275 276 276 276 276
274 275 276 275 274 273 273 272 273 273 272 271 272 272 271 272 272 271 269 269 268 268 268 267 267 268 268 269 270 270 271 272 273 273 274 275 275 275 276 277 277 277 277
276 277 278 278 277 275 274 274 274 275 274 273 273 273 272 272 272 270 270 269 269 270 269 268 267 267 267 268 269 270 271 272 273 274 274 275 276 276 276 277 278 278 279
277 278 279 279 278 276 275 275 276 277 276 275 274 274 273 273 273 271 270 270 270 270 270 269 268 268 268 269 270 270 271 272 273 274 275 276 275 275 275 276 277 278 279
278 279 280 279 279 278 277 278 279 279 278 277 276 275 274 274 273 273 273 272 271 270 271 270 270 270 269 270 270 271 271 272 272 274 275 276 275 274 274 275 277 278 280
279 281 281 280 280 281 281 281 281 281 280 279 280 278 277 276 275 274 274 273 272 271 271 271 272 272 271 271 271 271 272 272 272 273 275 276 275 274 275 276 278 279 281
281 281 281 280 280 281 282 283 283 283 282 281 282 282 280 279 278 276 275 273 273 273 273 273 273 273 273 273 273 272 272 270 271 274 275 275 275 276 275 277 278 279 281
281 281 281 280 279 280 282 283 284 283 283 283 285 284 282 279 277 276 275 274 274 274 275 276 276 276 275 275 274 273 272 270 270 273 275 275 274 275 275 276 277 277 279
283 282 282 281 281 280 280 282 283 283 285 286 285 284 282 281 279 279 278 278 278 278 279 279 279 278 277 276 275 274 273 271 271 273 273 273 273 274 276 276 276 276 277
282 282 281 281 283 282 281 281 281 282 285 286 285 284 284 284 283 283 282 281 280 280 281 281 280 278 277 277 277 276 276 276 274 273 272 272 271 274 276 276 276 275 275
282 280 281 281 283 284 283 282 282 284 284 286 286 286 285 286 287 286 285 283 281 281 282 282 281 280 279 280 279 278 277 276 274 274 273 273 272 272 274 277 277 276 275
282 282 282 282 283 284 282 282 284 284 284 284 284 285 286 287 287 287 286 285 283 282 283 285 285 284 283 281 279 277 277 277 276 276 275 273 273 272 273 275 277 277 276
283 282 283 283 283 281 281 281 283 284 284 285 285 286 287 287 287 288 289 287 284 282 283 286 287 286 284 283 281 279 279 278 279 279 277 276 275 273 273 273 275 275 273
284 284 283 283 283 282 282 283 284 284 285 284 285 287 287 287 288 289 290 289 286 283 283 285 287 286 285 285 284 282 282 280 279 280 278 277 277 275 273 272 273 272 272
286 285 284 284 284 284 285 286 286 286 285 285 287 288 287 286 287 287 287 287 287 286 285 285 285 285 285 287 287 285 283 282 282 280 278 279 279 277 274 272 271 271 275
287 287 285 285 286 286 287 288 288 288 287 287 288 288 286 286 287 287 287 287 288 286 284 286 286 285 285 285 286 285 283 282 282 279 279 281 282 278 273 269 269 273 277
288 288 287 286 286 286 287 287 289 289 288 289 290 291 289 288 288 289 288 287 285 284 284 284 283 284 285 284 282 280 280 281 281 280 281 282 280 276 273 272 273 274 277
290 289 287 286 285 285 286 287 289 288 288 291 292 291 290 288 288 288 287 287 286 284 282 282 282 282 282 282 281 280 279 280 281 280 279 279 279 278 275 273 273 273 275
289 288 287 287 286 286 286 286 286 286 287 290 291 290 289 287 287 287 287 286 284 283 282 280 279 278 278 280 280 280 280 279 279 276 275 277 277 277 278 277 277 278 277
287 285 286 287 287 287 286 285 284 284 286 288 289 288 286 284 284 284 284 284 283 281 280 278 278 277 277 278 277 275 274 276 277 277 277 277 277 278 280 280 277 276 277
284 285 286 286 287 287 286 286 284 284 286 287 289 289 287 285 284 283 283 283 283 280 278 277 277 278 276 274 274 272 272 273 273 272 274 277 280 281 280 279 276 275 276
Height
5614 5614 5615 5615 5615 5616 5617 5618 5619 5620 5620 5621 5622 5622 5623 5624 5625 5626 5626 5627 5628 5628 5629 5631 5632 5632 5632 5633 5633 5634 5635 5635 5636 5637 5636 5636 5636 5635 5634 5633 5633 5632 5631
5604 5604 5605 5605 5605 5606 5606 5607 5607 5608 5609 5609 5610 5610 5611 5611 5612 5613 5614 5614 5615 5616 5616 5617 5619 5619 5619 5620 5620 5621 5621 5621 5622 5623 5623 5622 5622 5621 5620 5619 5618 5617 5616
5594 5594 5594 5594 5594 5594 5595 5595 5596 5596 5597 5597 5598 5598 5598 5599 5599 5600 5601 5601 5602 5602 5603 5604 5605 5606 5606 5607 5607 5607 5607 5607 5607 5608 5608 5608 5608 5607 5606 5605 5604 5603 5602
5584 5584 5583 5583 5583 5583 5583 5583 5584 5584 5584 5585 5585 5586 5586 5586 5586 5587 5587 5587 5588 5588 5589 5590 5591 5592 5593 5593 5593 5594 5594 5594 5594 5594 5594 5594 5594 5593 5592 5591 5591 5590 5589
5573 5573 5573 5572 5572 5572 5572 5572 5572 5572 5572 5572 5572 5573 5573 5573 5573 5573 5573 5573 5574 5574 5575 5576 5577 5578 5579 5579 5580 5580 5580 5581 5581 5580 5580 5580 5580 5579 5579 5578 5577 5576 5576
5563 5562 5562 5562 5562 5561 5561 5560 5560 5560 5559 5560 5560 5560 5560 5560 5560 5560 5560 5560 5560 5561 5562 5563 5564 5564 5565 5566 5566 5566 5567 5567 5567 5567 5567 5567 5566 5566 5565 5564 5563 5563 5563
5553 5553 5552 5551 5551 5551 5550 5550 5549 5549 5548 5548 5548 5547 5547 5547 5547 5547 5547 5547 5548 5548 5549 5550 5550 5551 5552 5553 5553 5553 5553 5553 5554 5554 5554 5554 5553 5553 5552 5551 5550 5550 5550
5544 5543 5542 5542 5541 5540 5540 5539 5539 5538 5537 5537 5537 5536 5536 5536 5535 5535 5535 5535 5535 5536 5536 5537 5538 5539 5540 5541 5541 5541 5541 5541 5541 5542 5542 5541 5540 5539 5539 5539 5538 5537 5537
5535 5534 5533 5532 5531 5531 5530 5530 5529 5528 5527 5527 5526 5525 5525 5525 5524 5524 5524 5524 5524 5525 5525 5526 5527 5528 5529 5529 5530 5530 5529 5529 5529 5529 5529 5528 5527 5527 5526 5526 5526 5525 5525
5527 5526 5525 5524 5523 5522 5522 5521 5520 5519 5518 5517 5516 5516 5515 5515 5515 5514 5514 5514 5514 5515 5515 5516 5517 5517 5517 5517 5517 5518 5518 5518 5518 5518 5517 5517 5516 5516 5515 5515 5514 5513 5512
5519 5518 5517 5516 5515 5515 5514 5513 5512 5511 5510 5509 5508 5507 5506 5506 5505 5505 5504 5504 5504 5505 5505 5506 5506 5507 5507 5506 5506 5507 5507 5507 5507 5507 5507 5506 5506 5505 5504 5504 5503 5502 5501
5511 5510 5510 5509 5508 5507 5506 5505 5504 5503 5502 5501 5500 5499 5498 5497 5496 5496 5496 5496 5496 5496 5496 5497 5497 5497 5497 5497 5496 5496 5497 5497 5497 5497 5496 5496 5496 5495 5494 5494 5493 5492 5491
5504 5503 5503 5502 5501 5501 5500 5499 5498 5497 5495 5494 5493 5492 5491 5490 5489 5489 5489 5488 5488 5488 5488 5488 5488 5488 5488 5488 5487 5487 5487 5487 5487 5487 5487 5486 5486 5486 5485 5484 5484 5483 5482
5498 5497 5496 5495 5495 5494 5493 5492 5491 5490 5489 5488 5487 5486 5485 5484 5483 5483 5482 5482 5481 5481 5481 5481 5480 5480 5480 5479 5479 5478 5478 5478 5478 5478 5477 5477 5477 5477 5476 5476 5476 5475 5475
5491 5490 5490 5489 5488 5487 5487 5486 5485 5484 5483 5482 5481 5480 5479 5478 5477 5477 5476 5475 5475 5475 5474 5474 5473 5473 5472 5471 5471 5470 5470 5470 5469 5469 5469 5469 5469 5469 5469 5468 5468 5468 5467
5485 5484 5483 5483 5482 5481 5480 5480 5479 5478 5477 5476 5475 5475 5474 5473 5472 5471 5470 5469 5469 5468 5468 5467 5466 5466 5465 5465 5464 5464 5463 5463 5462 5462 5462 5462 5462 5462 5462 5462 5461 5461 5461
5479 5478 5477 5477 5476 5475 5475 5474 5473 5473 5472 5471 5470 5469 5468 5467 5466 5465 5464 5464 5463 5463 5462 5461 5461 5460 5459 5458 5458 5457 5457 5456 5456 5456 5456 5456 5456 5456 5456 5456 5455 5455 5454
5473 5472 5472 5471 5470 5470 5469 5468 5468 5467 5467 5466 5465 5464 5463 5462 5461 5460 5459 5458 5458 5458 5457 5456 5455 5455 5454 5453 5452 5452 5451 5451 5450 5450 5450 5450 5450 5450 5450 5450 5450 5450 5449
5467 5467 5466 5465 5465 5464 5464 5463 5462 5462 5461 5460 5460 5459 5458 5457 5456 5455 5454 5453 5453 5452 5452 5451 5450 5449 5449 5448 5447 5447 5446 5446 5446 5445 5445 5445 5445 5445 5445 5445 5445 5445 5445
5462 5461 5461 5460 5460 5459 5458 5458 5457 5456 5456 5455 5454 5453 5452 5451 5451 5450 5449 5448 5448 5447 5446 5446 5445 5445 5444 5444 5443 5442 5442 5442 5441 5441 5441 5441 5441 5440 5440 5441 5441 5441 5441
5458 5457 5456 5455 5455 5454 5453 5453 5452 5451 5450 5450 5449 5448 5447 5446 5446 5445 5444 5443 5443 5442 5442 5441 5441 5441 5440 5440 5439 5439 5438 5438 5438 5437 5437 5437 5437 5437 5437 5437 5437 5437 5437
5453 5452 5451 5450 5450 5449 5448 5448 5447 5446 5445 5445 5444 5443 5442 5441 5440 5440 5439 5438 5438 5437 5437 5437 5437 5436 5436 5436 5435 5435 5435 5434 5434 5434 5434 5433 5433 5433 5433 5433 5433 5434 5433
5448 5447 5446 5446 5445 5444 5444 5443 5442 5441 5441 5440 5439 5438 5438 5437 5436 5435 5435 5434 5433 5433 5433 5432 5432 5432 5432 5432 5431 5431 5431 5431 5430 5430 5430 5430 5430 5430 5430 5430 5430 5430 5429
5443 5443 5442 5441 5440 5440 5439 5438 5437 5437 5436 5435 5434 5434 5433 5432 5431 5431 5430 5429 5429 5429 5428 5428 5428 5428 5428 5428 5427 5427 5427 5427 5426 5426 5427 5427 5426 5426 5426 5426 5426 5426 5426
5439 5438 5437 5437 5436 5435 5434 5433 5432 5432 5431 5430 5429 5429 5428 5427 5427 5426 5426 5425 5425 5425 5424 5424 5424 5424 5424 5423 5423 5423 5423 5423 5423 5423 5423 5423 5423 5423 5423 5423 5423 5423 5422
5434 5433 5432 5432 5431 5430 5429 5428 5427 5427 5426 5425 5425 5424 5423 5423 5422 5422 5421 5421 5421 5420 5420 5420 5419 5419 5419 5419 5419 5419 5419 5419 5419 5419 5419 5420 5420 5420 5420 5419 5420 5420 5420